Regional Weather Roundup
Issued by NWS Kansas City/Pleasant Hill, MO

Home | Current Version | Previous Version | Text Only | Print | Product List | Glossary On
Versions: 1 2 3 4 5 6 7 8 9 10 11 12 13 14 15 16 17 18 19 20 21 22 23 24 25 26 27 28 29 30 31 32 33 34 35 36 37 38 39 40 41 42 43 44 45 46 47 48 49 50
000
ASUS43 KEAX 230711
RWREAX

WEATHER ROUNDUP FOR EASTERN KANSAS AND NORTHWEST MISSOURI
NATIONAL WEATHER SERVICE KANSAS CITY/PLEASANT HILL MO
200 AM CDT THU OCT 23 2014

KSZ040-057-103>105-MOZ028-029-037-043-230800-
...KANSAS CITY METROPOLITAN AREA...

CITY           SKY/WX    TMP DP  RH WIND       PRES   REMARKS
K.C. INTL      CLOUDY    61  52  72 S12       30.09S
K.C. DOWNTOWN  CLOUDY    64  51  62 S8        30.09F
LEES SUMMIT    CLOUDY    58  49  72 S9        30.11F
OLATHE - IXD   CLOUDY    60  52  74 S9        30.10S
OLATHE - OJC   CLOUDY    59  52  77 S7        30.10S
LAWRENCE       LGT RAIN  61  56  83 CALM      30.10R

$$

MOZ001>008-011>017-020>025-030>033-038>040-044>046-053-054-230800-
...NORTHERN AND CENTRAL MISSOURI...

CITY           SKY/WX    TMP DP  RH WIND       PRES   REMARKS
ST. JOSEPH     LGT RAIN  59  55  87 S6        30.11R
MOSBY          CLOUDY    55  46  71 SE3       30.10F
WHITEMAN AFB   CLEAR     53  47  81 S7        30.13S
CLINTON        MOCLDY    55  48  76 SE3       30.14F
SEDALIA        CLEAR     50  45  83 S9        30.16S
WARSAW         NOT AVBL
MARSHALL       PTCLDY    52  45  76 SE6       30.15F
CHILLICOTHE      N/A     54  44  69 SE6       30.13F
MOBERLY        CLEAR     48  39  71 SE7       30.16F
KIRKSVILLE     PTCLDY    48  43  82 S9        30.15F

$$

MOZ041-047>049-056>058-063>065-088>090-097-230800-
...EASTERN AND SOUTHERN MISSOURI...

CITY           SKY/WX    TMP DP  RH WIND       PRES   REMARKS
ST. LOUIS INTL PTCLDY    46  39  76 SE5       30.22S
SPIRIT OF STL  FOG       37  37 100 CALM      30.21S VSB 3/4
COLUMBIA       CLEAR     47  41  80 SE9       30.17S
JEFFERSON CITY CLEAR     46  40  79 E7        30.18S
MEXICO         PTCLDY    46  46 100 SE6       30.18F
HANNIBAL       CLEAR     50  39  66 SE8       30.18S
ROLLA          CLEAR     43  38  82 SE7       30.17F
LEBANON        CLEAR     48  43  81 S7        30.18F
OSAGE BEACH    CLEAR     48  41  76 S6        30.18R
SPRINGFIELD    PTCLDY    52  45  77 SE12      30.15F
BRANSON        PTCLDY    50  45  81 SE6       30.18F
NEVADA         CLOUDY    55  50  82 S8        30.14S
JOPLIN         CLOUDY    58  51  78 S8        30.14S
WEST PLAINS    CLEAR     40  36  86 CALM      30.20F

$$

IAZ060-094-KSZ022-034>040-054-083-096-NEZ052-066-093-230800-
...KANSAS...SOUTHEAST NEBRASKA AND IOWA...

CITY           SKY/WX    TMP DP  RH WIND       PRES   REMARKS
TOPEKA         LGT RAIN  63  62  97 VRB3      30.09S FOG
MANHATTAN      LGT RAIN  62  61  96 NE6       30.07F
EMPORIA        CLOUDY    62  61  96 S9        30.09S
CHANUTE        CLOUDY    62  58  86 S10       30.12R
WICHITA        CLOUDY    62  56  80 S6        30.08S
OMAHA          CLOUDY    63  60  90 S12       30.02F
FALLS CITY     LGT RAIN  62  60  93 S3        30.06S
LAMONI         CLOUDY    55  44  66 SW10      30.11R
DES MOINES     RAIN      56  47  71 S8        30.10F

$$




USA.gov is the U.S. government's official web portal to all federal, state and local government web resources and services.